| time (UTC) | temp F | wind direction | speed knots | gust knots | rain 1hr in | rain 24hr in | rain mn in | humidity % | barometer mb |
| 20260505233952 | 71 | 254 | 7.0 | 20.0 | 0.00 | 0.00 | 0.00 | 33 | 1015.4 |
| 20260505233450 | 71 | 241 | 9.6 | 11.3 | 0.00 | 0.00 | 0.00 | 32 | 1015.4 |
| 20260505232947 | 73 | 222 | 12.2 | 15.6 | 0.00 | 0.00 | 0.00 | 32 | 1015.3 |
| 20260505232445 | 72 | 232 | 12.2 | 15.6 | 0.00 | 0.00 | 0.00 | 32 | 1015.3 |
| 20260505231942 | 71 | 234 | 13.9 | 14.8 | 0.00 | 0.00 | 0.00 | 33 | 1015.5 |
| 20260505231439 | 72 | 239 | 11.3 | 13.9 | 0.00 | 0.00 | 0.00 | 31 | 1015.5 |
| 20260505230937 | 73 | 240 | 1.7 | 19.1 | 0.00 | 0.00 | 0.00 | 31 | 1015.3 |
| 20260505230435 | 72 | 232 | 7.8 | 17.4 | 0.00 | 0.00 | 0.00 | 32 | 1015.5 |
| 20260505225931 | 72 | 242 | 10.4 | 17.4 | 0.00 | 0.00 | 0.00 | 31 | 1015.5 |
| 20260505225428 | 73 | 242 | 9.6 | 17.4 | 0.00 | 0.00 | 0.00 | 30 | 1015.6 |
| 20260505224923 | 72 | 218 | 7.0 | 17.4 | 0.00 | 0.00 | 0.00 | 30 | 1015.6 |
| 20260505224421 | 71 | 253 | 12.2 | 19.1 | 0.00 | 0.00 | 0.00 | 31 | 1015.8 |
| 20260505223918 | 73 | 235 | 8.7 | 8.7 | 0.00 | 0.00 | 0.00 | 30 | 1016.0 |
| 20260505223415 | 73 | 227 | 12.2 | 13.9 | 0.00 | 0.00 | 0.00 | 29 | 1015.9 |
| 20260505222911 | 74 | 232 | 16.5 | 18.2 | 0.00 | 0.00 | 0.00 | 29 | 1015.8 |
| 20260505222407 | 71 | 249 | 7.0 | 13.0 | 0.00 | 0.00 | 0.00 | 32 | 1015.9 |
| 20260505221904 | 73 | 246 | 3.5 | 18.2 | 0.00 | 0.00 | 0.00 | 31 | 1016.1 |
| 20260505221401 | 73 | 183 | 0.9 | 4.3 | 0.00 | 0.00 | 0.00 | 31 | 1016.1 |
| 20260505220858 | 74 | 327 | 6.1 | 13.9 | 0.00 | 0.00 | 0.00 | 30 | 1016.1 |
| 20260505220355 | 71 | 345 | 2.6 | 11.3 | 0.00 | 0.00 | 0.00 | 32 | 1016.5 |
| 20260505215852 | 72 | 232 | 7.8 | 13.0 | 0.00 | 0.00 | 0.00 | 31 | 1016.3 |
| 20260505215351 | 71 | 309 | 7.0 | 14.8 | 0.00 | 0.00 | 0.00 | 31 | 1016.2 |
| 20260505214848 | 74 | 249 | 2.6 | 12.2 | 0.00 | 0.00 | 0.00 | 30 | 1016.6 |
| 20260505214346 | 73 | 172 | 0.9 | 7.0 | 0.00 | 0.00 | 0.00 | 31 | 1016.5 |
| 20260505213843 | 71 | 247 | 5.2 | 12.2 | 0.00 | 0.00 | 0.00 | 33 | 1016.6 |
| 20260505213341 | 71 | 253 | 5.2 | 20.0 | 0.00 | 0.00 | 0.00 | 31 | 1016.6 |
| 20260505212836 | 71 | 255 | 3.5 | 9.6 | 0.00 | 0.00 | 0.00 | 31 | 1016.8 |
| 20260505212333 | 71 | 252 | 4.3 | 9.6 | 0.00 | 0.00 | 0.00 | 32 | 1016.8 |
| 20260505211829 | 71 | 329 | 10.4 | 14.8 | 0.00 | 0.00 | 0.00 | 32 | 1016.8 |
| 20260505211327 | 72 | 264 | 4.3 | 13.0 | 0.00 | 0.00 | 0.00 | 32 | 1016.7 |
| 20260505210824 | 73 | 354 | 5.2 | 10.4 | 0.00 | 0.00 | 0.00 | 32 | 1016.7 |
| 20260505210320 | 70 | 330 | 5.2 | 10.4 | 0.00 | 0.00 | 0.00 | 35 | 1016.8 |
| 20260505205817 | 71 | 257 | 7.0 | 12.2 | 0.00 | 0.00 | 0.00 | 33 | 1016.9 |
| 20260505205316 | 71 | 333 | 3.5 | 5.2 | 0.00 | 0.00 | 0.00 | 33 | 1016.8 |
| 20260505204812 | 70 | 289 | 2.6 | 9.6 | 0.00 | 0.00 | 0.00 | 34 | 1017.0 |
| 20260505204310 | 72 | 134 | 0.0 | 13.0 | 0.00 | 0.00 | 0.00 | 31 | 1016.8 |
| 20260505203807 | 70 | 320 | 10.4 | 13.0 | 0.00 | 0.00 | 0.00 | 34 | 1016.8 |
| 20260505203304 | 71 | 310 | 3.5 | 9.6 | 0.00 | 0.00 | 0.00 | 34 | 1016.8 |
| 20260505202800 | 71 | 332 | 4.3 | 11.3 | 0.00 | 0.00 | 0.00 | 34 | 1016.7 |
| 20260505202256 | 70 | 330 | 4.3 | 8.7 | 0.00 | 0.00 | 0.00 | 35 | 1016.9 |
| 20260505201753 | 72 | 24 | 0.9 | 7.0 | 0.00 | 0.00 | 0.00 | 35 | 1016.8 |
| 20260505201250 | 70 | 80 | 3.5 | 6.1 | 0.00 | 0.00 | 0.00 | 35 | 1016.9 |
| 20260505200749 | 68 | 249 | 5.2 | 6.1 | 0.00 | 0.00 | 0.00 | 38 | 1017.0 |
| 20260505200245 | 69 | 312 | 4.3 | 11.3 | 0.00 | 0.00 | 0.00 | 37 | 1017.0 |
| 20260505195740 | 71 | 342 | 2.6 | 11.3 | 0.00 | 0.00 | 0.00 | 36 | 1017.1 |
| 20260505195239 | 68 | 253 | 6.1 | 13.9 | 0.00 | 0.00 | 0.00 | 37 | 1017.1 |
| 20260505194735 | 70 | 312 | 10.4 | 18.2 | 0.00 | 0.00 | 0.00 | 37 | 1017.2 |
| 20260505194232 | 68 | 309 | 8.7 | 14.8 | 0.00 | 0.00 | 0.00 | 40 | 1017.3 |
| 20260505193728 | 68 | 302 | 5.2 | 8.7 | 0.00 | 0.00 | 0.00 | 40 | 1017.4 |
| 20260505193225 | 68 | 312 | 11.3 | 13.0 | 0.00 | 0.00 | 0.00 | 40 | 1017.4 |
| 20260505192724 | 69 | 248 | 4.3 | 13.0 | 0.00 | 0.00 | 0.00 | 37 | 1017.4 |
| 20260505192221 | 69 | 310 | 5.2 | 11.3 | 0.00 | 0.00 | 0.00 | 39 | 1017.6 |
| 20260505191719 | 69 | 35 | 1.7 | 7.8 | 0.00 | 0.00 | 0.00 | 40 | 1017.2 |
| 20260505191218 | 67 | 68 | 2.6 | 7.0 | 0.00 | 0.00 | 0.00 | 41 | 1017.7 |
| 20260505190713 | 68 | 257 | 7.0 | 7.8 | 0.00 | 0.00 | 0.00 | 41 | 1017.7 |
| 20260505190213 | 69 | 349 | 1.7 | 8.7 | 0.00 | 0.00 | 0.00 | 40 | 1017.6 |
| 20260505185710 | 66 | 56 | 0.9 | 11.3 | 0.00 | 0.00 | 0.00 | 42 | 1017.6 |
| 20260505185206 | 67 | 236 | 3.5 | 13.9 | 0.00 | 0.00 | 0.00 | 42 | 1017.4 |
| 20260505184702 | 68 | 146 | 1.7 | 5.2 | 0.00 | 0.00 | 0.00 | 41 | 1017.5 |
| 20260505184200 | 68 | 303 | 2.6 | 4.3 | 0.00 | 0.00 | 0.00 | 41 | 1017.6 |
| 20260505183656 | 68 | 359 | 1.7 | 7.8 | 0.00 | 0.00 | 0.00 | 41 | 1017.7 |
| 20260505183154 | 68 | 311 | 4.3 | 8.7 | 0.00 | 0.00 | 0.00 | 41 | 1017.5 |
| 20260505182650 | 67 | 317 | 7.8 | 12.2 | 0.00 | 0.00 | 0.00 | 43 | 1017.6 |
| 20260505182148 | 67 | 357 | 3.5 | 15.6 | 0.00 | 0.00 | 0.00 | 43 | 1017.4 |
| 20260505181643 | 66 | 321 | 7.0 | 14.8 | 0.00 | 0.00 | 0.00 | 43 | 1017.5 |
| 20260505181141 | 67 | 323 | 9.6 | 10.4 | 0.00 | 0.00 | 0.00 | 42 | 1017.4 |
| 20260505180637 | 67 | 322 | 11.3 | 12.2 | 0.00 | 0.00 | 0.00 | 42 | 1017.2 |
| 20260505180135 | 68 | 55 | 2.6 | 7.8 | 0.00 | 0.00 | 0.00 | 42 | 1017.2 |
| 20260505175631 | 67 | 23 | 2.6 | 11.3 | 0.00 | 0.00 | 0.00 | 42 | 1017.0 |
| 20260505175127 | 68 | 357 | 2.6 | 7.0 | 0.00 | 0.00 | 0.00 | 42 | 1017.1 |
| 20260505174624 | 68 | 339 | 1.7 | 4.3 | 0.00 | 0.00 | 0.00 | 42 | 1017.1 |
| 20260505174120 | 66 | 250 | 2.6 | 15.6 | 0.00 | 0.00 | 0.00 | 44 | 1017.0 |
| 20260505173617 | 68 | 356 | 4.3 | 6.1 | 0.00 | 0.00 | 0.00 | 43 | 1017.0 |
| 20260505173114 | 68 | 44 | 2.6 | 4.3 | 0.00 | 0.00 | 0.00 | 43 | 1016.8 |
| 20260505172611 | 68 | 345 | 5.2 | 9.6 | 0.00 | 0.00 | 0.00 | 43 | 1016.7 |
| 20260505172108 | 68 | 53 | 1.7 | 5.2 | 0.00 | 0.00 | 0.00 | 43 | 1016.8 |
| 20260505171602 | 68 | 345 | 4.3 | 6.1 | 0.00 | 0.00 | 0.00 | 44 | 1016.6 |
| 20260505171100 | 68 | 19 | 1.7 | 9.6 | 0.00 | 0.00 | 0.00 | 43 | 1016.6 |
| 20260505170556 | 67 | 337 | 3.5 | 6.1 | 0.00 | 0.00 | 0.00 | 45 | 1016.5 |
| 20260505170053 | 67 | 0 | 3.5 | 7.0 | 0.00 | 0.00 | 0.00 | 45 | 1016.6 |
| 20260505165548 | 67 | 343 | 2.6 | 7.8 | 0.00 | 0.00 | 0.00 | 45 | 1016.5 |
| 20260505165044 | 68 | 329 | 6.1 | 7.8 | 0.00 | 0.00 | 0.00 | 45 | 1016.6 |
| 20260505164540 | 69 | 4 | 2.6 | 7.0 | 0.00 | 0.00 | 0.00 | 44 | 1016.6 |
| 20260505164038 | 68 | 17 | 3.5 | 7.0 | 0.00 | 0.00 | 0.00 | 44 | 1016.3 |
| 20260505163537 | 69 | 24 | 3.5 | 6.1 | 0.00 | 0.00 | 0.00 | 43 | 1016.3 |
| 20260505163033 | 69 | 50 | 3.5 | 5.2 | 0.00 | 0.00 | 0.00 | 43 | 1016.2 |
| 20260505162526 | 69 | 125 | 0.0 | 2.6 | 0.00 | 0.00 | 0.00 | 41 | 1016.5 |
| 20260505162023 | 68 | 66 | 1.7 | 6.1 | 0.00 | 0.00 | 0.00 | 44 | 1016.2 |
| 20260505161520 | 68 | 348 | 2.6 | 7.0 | 0.00 | 0.00 | 0.00 | 45 | 1016.1 |
| 20260505161017 | 69 | 300 | 0.0 | 3.5 | 0.00 | 0.00 | 0.00 | 43 | 1016.3 |
| 20260505160515 | 67 | 114 | 0.0 | 5.2 | 0.00 | 0.00 | 0.00 | 44 | 1016.3 |
| 20260505152951 | 64 | 287 | 1.7 | 6.1 | 0.00 | 0.00 | 0.00 | 48 | 1016.0 |
| 20260505152449 | 65 | 262 | 3.5 | 7.0 | 0.00 | 0.00 | 0.00 | 47 | 1016.1 |
| 20260505151943 | 65 | 268 | 6.1 | 7.8 | 0.00 | 0.00 | 0.00 | 47 | 1015.9 |
| 20260505151439 | 66 | 216 | 2.6 | 3.5 | 0.00 | 0.00 | 0.00 | 45 | 1015.9 |
| 20260505150937 | 65 | 212 | 0.0 | 1.7 | 0.00 | 0.00 | 0.00 | 47 | 1015.7 |
| 20260505150433 | 66 | 266 | 2.6 | 6.1 | 0.00 | 0.00 | 0.00 | 46 | 1015.9 |
| 20260505140403 | 65 | 44 | 0.0 | 1.7 | 0.00 | 0.00 | 0.00 | 49 | 1015.6 |
| 20260505124817 | 57 | 156 | 0.9 | 1.7 | 0.00 | 0.00 | 0.00 | 62 | 1015.0 |
| 20260505124314 | 56 | 177 | 0.9 | 2.6 | 0.00 | 0.00 | 0.00 | 62 | 1015.0 |
| 20260505123810 | 57 | 153 | 1.7 | 1.7 | 0.00 | 0.00 | 0.00 | 62 | 1014.8 |
| 20260505123307 | 56 | 165 | 2.6 | 2.6 | 0.00 | 0.00 | 0.00 | 64 | 1014.9 |
| 20260505122802 | 55 | 134 | 1.7 | 3.5 | 0.00 | 0.00 | 0.00 | 65 | 1014.8 |
| 20260505122300 | 55 | 322 | 0.0 | 0.9 | 0.00 | 0.00 | 0.00 | 64 | 1014.8 |
| 20260505121756 | 55 | 100 | 0.0 | 0.9 | 0.00 | 0.00 | 0.00 | 64 | 1014.7 |
| 20260505121253 | 55 | 118 | 0.0 | 1.7 | 0.00 | 0.00 | 0.00 | 63 | 1014.8 |
| 20260505120750 | 56 | 254 | 0.9 | 3.5 | 0.00 | 0.00 | 0.00 | 62 | 1014.8 |
| 20260505120246 | 57 | 88 | 2.6 | 4.3 | 0.00 | 0.00 | 0.00 | 61 | 1014.8 |
| 20260505115744 | 57 | 92 | 1.7 | 4.3 | 0.00 | 0.00 | 0.00 | 61 | 1014.8 |
| 20260505115242 | 57 | 87 | 2.6 | 4.3 | 0.00 | 0.00 | 0.00 | 61 | 1014.8 |
| 20260505114740 | 57 | 98 | 2.6 | 3.5 | 0.00 | 0.00 | 0.00 | 61 | 1015.0 |
| 20260505114236 | 57 | 143 | 0.0 | 2.6 | 0.00 | 0.00 | 0.00 | 62 | 1015.0 |
| 20260505113733 | 57 | 53 | 1.7 | 2.6 | 0.00 | 0.00 | 0.00 | 61 | 1015.2 |
| 20260505113230 | 57 | 79 | 0.9 | 2.6 | 0.00 | 0.00 | 0.00 | 61 | 1015.1 |
| 20260505112726 | 59 | 148 | 0.0 | 1.7 | 0.00 | 0.00 | 0.00 | 60 | 1015.5 |
| 20260505112224 | 59 | 89 | 0.0 | 1.7 | 0.00 | 0.00 | 0.00 | 59 | 1015.1 |
| 20260505111723 | 59 | 115 | 0.9 | 1.7 | 0.00 | 0.00 | 0.00 | 59 | 1015.1 |
| 20260505111219 | 59 | 191 | 1.7 | 2.6 | 0.00 | 0.00 | 0.00 | 58 | 1015.3 |
| 20260505110715 | 59 | 237 | 1.7 | 2.6 | 0.00 | 0.00 | 0.00 | 58 | 1015.2 |
| 20260505110213 | 59 | 230 | 1.7 | 4.3 | 0.00 | 0.00 | 0.00 | 57 | 1015.4 |
| 20260505102148 | 59 | 93 | 1.7 | 2.6 | 0.00 | 0.00 | 0.00 | 57 | 1015.3 |
| 20260505101647 | 60 | 99 | 2.6 | 5.2 | 0.00 | 0.00 | 0.00 | 56 | 1015.2 |
| 20260505101143 | 60 | 87 | 5.2 | 5.2 | 0.00 | 0.00 | 0.00 | 56 | 1015.3 |
| 20260505100639 | 59 | 100 | 2.6 | 4.3 | 0.00 | 0.00 | 0.00 | 56 | 1015.2 |
| 20260505100136 | 59 | 93 | 1.7 | 3.5 | 0.00 | 0.00 | 0.00 | 57 | 1015.5 |
| 20260505095632 | 60 | 89 | 4.3 | 5.2 | 0.00 | 0.00 | 0.00 | 56 | 1015.2 |
| 20260505095129 | 60 | 92 | 5.2 | 5.2 | 0.00 | 0.00 | 0.00 | 55 | 1015.4 |
| 20260505094625 | 60 | 52 | 1.7 | 2.6 | 0.00 | 0.00 | 0.00 | 54 | 1015.4 |
| 20260505094122 | 60 | 231 | 4.3 | 4.3 | 0.00 | 0.00 | 0.00 | 53 | 1015.3 |
| 20260505093618 | 60 | 217 | 1.7 | 3.5 | 0.00 | 0.00 | 0.00 | 54 | 1015.3 |
| 20260505093115 | 60 | 252 | 2.6 | 2.6 | 0.00 | 0.00 | 0.00 | 54 | 1015.4 |
| 20260505092612 | 60 | 271 | 1.7 | 4.3 | 0.00 | 0.00 | 0.00 | 53 | 1015.2 |
| 20260505092111 | 61 | 348 | 2.6 | 5.2 | 0.00 | 0.00 | 0.00 | 52 | 1015.4 |
| 20260505091607 | 61 | 314 | 1.7 | 3.5 | 0.00 | 0.00 | 0.00 | 52 | 1015.4 |
| 20260505091106 | 61 | 318 | 5.2 | 5.2 | 0.00 | 0.00 | 0.00 | 52 | 1015.8 |
| 20260505090603 | 61 | 327 | 2.6 | 4.3 | 0.00 | 0.00 | 0.00 | 53 | 1015.8 |
| 20260505090101 | 61 | 256 | 0.9 | 5.2 | 0.00 | 0.00 | 0.00 | 52 | 1015.9 |
| 20260505085558 | 61 | 275 | 2.6 | 7.0 | 0.00 | 0.00 | 0.00 | 52 | 1015.8 |
| 20260505085057 | 60 | 236 | 3.5 | 3.5 | 0.00 | 0.00 | 0.00 | 53 | 1016.1 |
| 20260505084554 | 60 | 356 | 1.7 | 3.5 | 0.00 | 0.00 | 0.00 | 53 | 1016.0 |
| 20260505084052 | 61 | 275 | 0.0 | 2.6 | 0.00 | 0.00 | 0.00 | 52 | 1016.1 |
| 20260505083549 | 61 | 328 | 3.5 | 7.0 | 0.00 | 0.00 | 0.00 | 51 | 1016.1 |
| 20260505083046 | 61 | 311 | 2.6 | 5.2 | 0.00 | 0.00 | 0.00 | 51 | 1016.2 |
| 20260505082541 | 62 | 328 | 5.2 | 7.8 | 0.00 | 0.00 | 0.00 | 51 | 1016.3 |
| 20260505082039 | 62 | 281 | 4.3 | 13.9 | 0.00 | 0.00 | 0.00 | 50 | 1016.5 |
| 20260505081535 | 62 | 317 | 1.7 | 7.8 | 0.00 | 0.00 | 0.00 | 50 | 1016.5 |
| 20260505081032 | 61 | 10 | 1.7 | 4.3 | 0.00 | 0.00 | 0.00 | 51 | 1016.6 |
| 20260505080528 | 61 | 248 | 3.5 | 8.7 | 0.00 | 0.00 | 0.00 | 52 | 1016.5 |
| 20260505080025 | 61 | 340 | 4.3 | 5.2 | 0.00 | 0.00 | 0.00 | 52 | 1016.5 |
| 20260505075521 | 61 | 276 | 2.6 | 5.2 | 0.00 | 0.00 | 0.00 | 51 | 1016.6 |
| 20260505075018 | 61 | 295 | 2.6 | 13.9 | 0.00 | 0.00 | 0.00 | 52 | 1016.7 |
| 20260505074515 | 62 | 336 | 0.9 | 15.6 | 0.00 | 0.00 | 0.00 | 52 | 1016.7 |
| 20260505074012 | 62 | 258 | 2.6 | 7.0 | 0.00 | 0.00 | 0.00 | 53 | 1016.6 |
| 20260505073510 | 62 | 256 | 3.5 | 5.2 | 0.00 | 0.00 | 0.00 | 53 | 1016.6 |
| 20260505073008 | 62 | 332 | 2.6 | 3.5 | 0.00 | 0.00 | 0.00 | 53 | 1016.7 |
| 20260505072503 | 62 | 265 | 5.2 | 10.4 | 0.00 | 0.00 | 0.00 | 52 | 1016.6 |
| 20260505071959 | 62 | 248 | 3.5 | 4.3 | 0.00 | 0.00 | 0.00 | 52 | 1016.6 |
| 20260505071455 | 62 | 225 | 1.7 | 2.6 | 0.00 | 0.00 | 0.00 | 52 | 1016.7 |
| 20260505070953 | 62 | 354 | 3.5 | 4.3 | 0.00 | 0.00 | 0.00 | 52 | 1016.6 |
| 20260505070450 | 62 | 329 | 5.2 | 5.2 | 0.00 | 0.00 | 0.00 | 52 | 1016.6 |
| 20260505065946 | 62 | 273 | 1.7 | 5.2 | 0.00 | 0.00 | 0.00 | 52 | 1016.3 |
| 20260505065442 | 62 | 322 | 3.5 | 5.2 | 0.00 | 0.00 | 0.00 | 52 | 1016.6 |
| 20260505064940 | 62 | 202 | 1.7 | 3.5 | 0.00 | 0.00 | 0.00 | 53 | 1016.7 |
| 20260505064436 | 62 | 244 | 1.7 | 6.1 | 0.00 | 0.00 | 0.00 | 52 | 1016.8 |
| 20260505063934 | 62 | 240 | 9.6 | 13.0 | 0.00 | 0.00 | 0.00 | 52 | 1016.5 |
| 20260505063431 | 62 | 274 | 3.5 | 9.6 | 0.00 | 0.00 | 0.00 | 52 | 1016.5 |
| 20260505062927 | 62 | 263 | 5.2 | 7.0 | 0.00 | 0.00 | 0.00 | 52 | 1016.8 |
| 20260505062425 | 62 | 262 | 3.5 | 9.6 | 0.00 | 0.00 | 0.00 | 52 | 1016.8 |
| 20260505061921 | 62 | 232 | 7.8 | 9.6 | 0.00 | 0.00 | 0.00 | 52 | 1016.9 |
| 20260505061419 | 61 | 261 | 1.7 | 4.3 | 0.00 | 0.00 | 0.00 | 53 | 1016.8 |
| 20260505060917 | 61 | 232 | 6.1 | 8.7 | 0.00 | 0.00 | 0.00 | 53 | 1017.0 |
| 20260505060413 | 62 | 228 | 2.6 | 5.2 | 0.00 | 0.00 | 0.00 | 51 | 1016.8 |
| 20260505055910 | 62 | 338 | 8.7 | 10.4 | 0.00 | 0.00 | 0.00 | 50 | 1016.7 |
| 20260505055406 | 62 | 278 | 2.6 | 12.2 | 0.00 | 0.00 | 0.00 | 50 | 1016.8 |
| 20260505054903 | 62 | 256 | 7.8 | 12.2 | 0.00 | 0.00 | 0.00 | 51 | 1016.7 |
| 20260505054400 | 62 | 268 | 4.3 | 9.6 | 0.00 | 0.00 | 0.00 | 51 | 1017.0 |
| 20260505053858 | 62 | 321 | 4.3 | 10.4 | 0.00 | 0.00 | 0.00 | 50 | 1017.2 |
| 20260505053355 | 62 | 250 | 12.2 | 16.5 | 0.00 | 0.00 | 0.00 | 50 | 1017.3 |
| 20260505052852 | 63 | 276 | 6.1 | 20.9 | 0.00 | 0.00 | 0.00 | 49 | 1017.1 |
| 20260505052348 | 63 | 228 | 13.0 | 19.1 | 0.00 | 0.00 | 0.00 | 48 | 1017.0 |
| 20260505051846 | 63 | 231 | 11.3 | 17.4 | 0.00 | 0.00 | 0.00 | 48 | 1017.0 |
| 20260505051343 | 63 | 252 | 6.1 | 7.0 | 0.00 | 0.00 | 0.00 | 47 | 1017.1 |
| 20260505050842 | 63 | 240 | 7.8 | 13.9 | 0.00 | 0.00 | 0.00 | 46 | 1017.0 |
| 20260505050340 | 63 | 241 | 9.6 | 11.3 | 0.00 | 0.00 | 0.00 | 46 | 1016.8 |
| 20260505041306 | 63 | 249 | 7.8 | 13.0 | 0.00 | 0.00 | 0.00 | 47 | 1017.3 |
| 20260505040804 | 63 | 297 | 5.2 | 12.2 | 0.00 | 0.00 | 0.00 | 48 | 1017.1 |
| 20260505040301 | 64 | 250 | 7.8 | 13.9 | 0.00 | 0.00 | 0.00 | 47 | 1017.2 |
| 20260505035758 | 64 | 301 | 6.1 | 13.0 | 0.00 | 0.00 | 0.00 | 48 | 1017.0 |
| 20260505035253 | 64 | 301 | 4.3 | 15.6 | 0.00 | 0.00 | 0.00 | 47 | 1017.1 |
| 20260505034751 | 64 | 297 | 4.3 | 15.6 | 0.00 | 0.00 | 0.00 | 46 | 1017.1 |
| 20260505034247 | 64 | 313 | 7.0 | 19.1 | 0.00 | 0.00 | 0.00 | 46 | 1016.9 |
| 20260505033744 | 64 | 300 | 5.2 | 13.9 | 0.00 | 0.00 | 0.00 | 47 | 1016.8 |
| 20260505033242 | 64 | 249 | 6.1 | 13.9 | 0.00 | 0.00 | 0.00 | 46 | 1016.7 |
| 20260505032740 | 64 | 337 | 7.0 | 11.3 | 0.00 | 0.00 | 0.00 | 46 | 1016.9 |
| 20260505032235 | 64 | 104 | 0.0 | 8.7 | 0.00 | 0.00 | 0.00 | 45 | 1016.8 |
| 20260505031733 | 64 | 351 | 3.5 | 10.4 | 0.00 | 0.00 | 0.00 | 45 | 1016.6 |
| 20260505031229 | 64 | 240 | 3.5 | 7.8 | 0.00 | 0.00 | 0.00 | 46 | 1016.3 |
| 20260505030726 | 64 | 320 | 1.7 | 7.8 | 0.00 | 0.00 | 0.00 | 45 | 1016.5 |
| 20260505030222 | 64 | 281 | 4.3 | 10.4 | 0.00 | 0.00 | 0.00 | 45 | 1016.5 |
| 20260505025718 | 65 | 310 | 5.2 | 12.2 | 0.00 | 0.00 | 0.00 | 45 | 1016.2 |
| 20260505025217 | 65 | 319 | 1.7 | 8.7 | 0.00 | 0.00 | 0.00 | 44 | 1016.5 |
| 20260505024714 | 65 | 0 | 3.5 | 9.6 | 0.00 | 0.00 | 0.00 | 44 | 1016.1 |
| 20260505024211 | 65 | 321 | 8.7 | 12.2 | 0.00 | 0.00 | 0.00 | 44 | 1016.0 |
| 20260505023708 | 65 | 338 | 4.3 | 9.6 | 0.00 | 0.00 | 0.00 | 44 | 1016.0 |
| 20260505023206 | 65 | 255 | 9.6 | 16.5 | 0.00 | 0.00 | 0.00 | 43 | 1016.0 |
| 20260505022703 | 65 | 302 | 7.0 | 12.2 | 0.00 | 0.00 | 0.00 | 43 | 1016.2 |
| 20260505022200 | 65 | 256 | 2.6 | 17.4 | 0.00 | 0.00 | 0.00 | 42 | 1015.9 |
| 20260505021657 | 66 | 239 | 6.1 | 16.5 | 0.00 | 0.00 | 0.00 | 43 | 1016.0 |
| 20260505021153 | 66 | 325 | 7.0 | 11.3 | 0.00 | 0.00 | 0.00 | 43 | 1015.8 |
| 20260505020649 | 66 | 328 | 11.3 | 20.9 | 0.00 | 0.00 | 0.00 | 43 | 1015.8 |
| 20260505020145 | 66 | 342 | 9.6 | 15.6 | 0.00 | 0.00 | 0.00 | 43 | 1015.7 |
| 20260505015643 | 66 | 315 | 9.6 | 13.0 | 0.00 | 0.00 | 0.00 | 42 | 1015.7 |
| 20260505015139 | 66 | 254 | 3.5 | 11.3 | 0.00 | 0.00 | 0.00 | 42 | 1015.8 |
| 20260505014636 | 67 | 340 | 4.3 | 5.2 | 0.00 | 0.00 | 0.00 | 41 | 1016.0 |
| 20260505014133 | 67 | 201 | 2.6 | 23.5 | 0.00 | 0.00 | 0.00 | 41 | 1016.3 |
| 20260505013630 | 67 | 295 | 7.8 | 9.6 | 0.00 | 0.00 | 0.00 | 42 | 1015.9 |
| 20260505013127 | 67 | 337 | 12.2 | 13.0 | 0.00 | 0.00 | 0.00 | 41 | 1015.8 |
| 20260505012625 | 68 | 320 | 9.6 | 13.0 | 0.00 | 0.00 | 0.00 | 40 | 1015.8 |
| 20260505012122 | 68 | 10 | 1.7 | 4.3 | 0.00 | 0.00 | 0.00 | 41 | 1015.8 |
| 20260505011617 | 68 | 254 | 7.0 | 15.6 | 0.00 | 0.00 | 0.00 | 40 | 1016.0 |
| 20260505011115 | 69 | 351 | 6.1 | 8.7 | 0.00 | 0.00 | 0.00 | 38 | 1015.7 |
| 20260505010610 | 69 | 10 | 4.3 | 15.6 | 0.00 | 0.00 | 0.00 | 39 | 1015.9 |
| 20260505010107 | 70 | 338 | 6.1 | 12.2 | 0.00 | 0.00 | 0.00 | 39 | 1015.8 |
| 20260505005603 | 69 | 236 | 5.2 | 9.6 | 0.00 | 0.00 | 0.00 | 39 | 1016.0 |
| 20260505005101 | 70 | 278 | 5.2 | 13.0 | 0.00 | 0.00 | 0.00 | 38 | 1016.0 |
| 20260505004557 | 70 | 319 | 7.8 | 11.3 | 0.00 | 0.00 | 0.00 | 38 | 1015.8 |
| 20260505004054 | 71 | 219 | 5.2 | 7.0 | 0.00 | 0.00 | 0.00 | 36 | 1016.0 |
| 20260505003552 | 70 | 232 | 8.7 | 16.5 | 0.00 | 0.00 | 0.00 | 37 | 1015.8 |
| 20260505003049 | 71 | 292 | 3.5 | 7.8 | 0.00 | 0.00 | 0.00 | 35 | 1015.8 |
| 20260505002543 | 71 | 321 | 6.1 | 14.8 | 0.00 | 0.00 | 0.00 | 35 | 1015.9 |
| 20260505002043 | 71 | 304 | 7.0 | 15.6 | 0.00 | 0.00 | 0.00 | 35 | 1015.8 |
| 20260505001540 | 71 | 333 | 5.2 | 6.1 | 0.00 | 0.00 | 0.00 | 35 | 1015.7 |
| 20260505001037 | 71 | 298 | 10.4 | 17.4 | 0.00 | 0.00 | 0.00 | 35 | 1015.6 |
| 20260505000534 | 71 | 238 | 1.7 | 13.9 | 0.00 | 0.00 | 0.00 | 34 | 1015.7 |
| 20260505000032 | 72 | 276 | 6.1 | 11.3 | 0.00 | 0.00 | 0.00 | 35 | 1015.6 |
| 20260504235528 | 71 | 273 | 3.5 | 11.3 | 0.00 | 0.00 | 0.00 | 33 | 1015.4 |
| 20260504235025 | 71 | 263 | 5.2 | 18.2 | 0.00 | 0.00 | 0.00 | 34 | 1015.5 |
| 20260504234522 | 72 | 251 | 10.4 | 17.4 | 0.00 | 0.00 | 0.00 | 34 | 1015.4 |